Sigfox identifier Datetime Temperature Humidity SNR
003C0020 2018-10-09 07:58:25 20.3 38 18.7
003C0020 2018-10-09 06:52:26 20.3 38 18.8
003C0020 2018-10-09 05:46:24 20.3 38 18.6
003C0020 2018-10-09 04:40:23 20.3 37 18.3
003C0020 2018-10-09 01:22:16 20.2 37 17.8
003C0020 2018-10-09 00:16:17 20.2 37 17.5
003C0020 2018-10-08 23:10:07 20.2 37 17.2
003C0020 2018-10-08 22:04:03 20.2 37 16.8
003C0020 2018-10-08 20:57:55 20.1 37 16.7
003C0020 2018-10-08 19:51:52 20.1 37 16.5
003C0020 2018-10-08 18:45:48 20.1 36 16
003C0020 2018-10-08 17:39:41 20.1 36 16
003C0020 2018-10-08 16:33:37 20.1 36 16.1
003C0020 2018-10-08 15:27:29 20 36 16
003C0020 2018-10-08 14:21:20 20 36 16.1
003C0020 2018-10-08 13:15:11 20 36 16.1
003C0020 2018-10-08 12:09:06 20.1 36 15.5
003C0020 2018-10-08 11:03:02 19.9 33 15.3
003C0020 2018-10-08 09:57:02 19.9 33 14.9
003C0020 2018-10-08 08:51:00 19.7 32 15.2
003C0020 2018-10-08 07:44:56 19.7 33 15.1
003C0020 2018-10-08 05:32:50 19.9 35 15
003C0020 2018-10-08 04:26:44 19.9 35 14.9
003C0020 2018-10-08 03:20:33 19.9 36 15.3
003C0020 2018-10-08 02:14:28 19.9 36 15.2
003C0020 2018-10-08 01:08:25 19.9 37 15.2
003C0020 2018-10-08 00:02:22 19.9 37 15.4
003C0020 2018-10-07 22:56:20 19.9 38 15.6
003C0020 2018-10-07 21:50:12 20 38 15.2
003C0020 2018-10-07 20:44:03 20.1 39 15.1
003C0020 2018-10-07 19:37:55 20.1 39 14.9
003C0020 2018-10-07 18:31:49 20.1 39 15.1
003C0020 2018-10-07 17:25:41 20.1 39 15.4
003C0020 2018-10-07 16:19:33 20.1 39 15.4
003C0020 2018-10-07 15:13:28 20.1 39 15.5
003C0020 2018-10-07 14:07:17 20.1 39 15.4
003C0020 2018-10-07 13:01:10 20.1 39 15.6
003C0020 2018-10-07 11:55:03 20.1 39 15.6
003C0020 2018-10-07 09:42:49 20.1 39 15.8
003C0020 2018-10-07 08:36:45 20.2 39 15.6
003C0020 2018-10-07 07:30:38 20.2 39 15.8
003C0020 2018-10-07 06:24:35 20.3 39 15.9
003C0020 2018-10-07 05:18:30 20.3 40 16
003C0020 2018-10-07 04:12:24 20.3 40 16.1
003C0020 2018-10-07 03:06:22 20.3 40 15.8
003C0020 2018-10-07 02:00:18 20.3 40 15.9
003C0020 2018-10-07 00:54:11 20.3 40 15.8
003C0020 2018-10-06 23:48:06 20.3 40 16.2
003C0020 2018-10-06 22:42:05 20.4 40 15.9
003C0020 2018-10-06 21:36:08 20.5 40 16.2
003C0020 2018-10-06 20:30:13 20.5 40 16.1
003C0020 2018-10-06 19:24:08 20.5 40 16.1
003C0020 2018-10-06 18:18:07 20.5 40 15.9
003C0020 2018-10-06 17:12:05 20.5 40 16
003C0020 2018-10-06 16:05:58 20.5 40 16
003C0020 2018-10-06 14:59:53 20.5 40 16.1
003C0020 2018-10-06 13:53:46 20.5 40 16
003C0020 2018-10-06 12:47:43 20.5 40 15.8
003C0020 2018-10-06 11:41:40 20.5 40 15.6
003C0020 2018-10-06 10:35:32 20.5 40 15.6
003C0020 2018-10-06 09:29:28 20.5 40 15.7
003C0020 2018-10-06 08:23:21 20.5 40 15.4
003C0020 2018-10-06 07:17:15 20.6 41 15.3
003C0020 2018-10-06 06:11:12 20.7 41 18.6
003C0020 2018-10-06 05:05:02 20.7 41 18.6
003C0020 2018-10-06 03:58:54 20.7 42 18.6
003C0020 2018-10-06 02:52:51 20.7 42 18.5
003C0020 2018-10-06 01:46:48 20.7 43 18.4
003C0020 2018-10-06 00:40:44 20.7 43 18.4
003C0020 2018-10-05 23:34:39 20.7 43 18.5
003C0020 2018-10-05 22:28:34 20.8 44 18.4
003C0020 2018-10-05 21:22:29 20.9 44 18.6
003C0020 2018-10-05 20:16:25 20.9 45 18.5
003C0020 2018-10-05 19:10:30 20.9 45 18.7
003C0020 2018-10-05 18:04:26 20.9 46 18.6
003C0020 2018-10-05 16:58:18 20.9 46 18.8
003C0020 2018-10-05 15:52:16 20.9 46 18.8
003C0020 2018-10-05 14:46:14 20.8 46 19
003C0020 2018-10-05 13:40:12 20.9 45 19.2
003C0020 2018-10-05 12:34:18 21 44 19.3
003C0020 2018-10-05 11:28:13 21.2 42 19.4
003C0020 2018-10-05 09:16:16 20.8 40 19.7
003C0020 2018-10-05 08:10:13 20.5 36 20
003C0020 2018-10-05 07:04:12 20.7 30 20.3
003C0020 2018-10-05 04:52:11 20.7 29 20.5
003C0020 2018-10-05 03:46:06 20.7 30 20.8
003C0020 2018-10-05 02:39:57 20.7 30 21.3
003C0020 2018-10-05 01:33:51 20.7 30 21.8
003C0020 2018-10-05 00:27:47 20.9 30 14.5
003C0020 2018-10-04 23:21:40 21 30 14.2
003C0020 2018-10-04 22:15:36 21 30 14.3
003C0020 2018-10-04 20:03:26 21.2 29 14.8
003C0020 2018-10-04 18:57:22 21.2 28 14.3
003C0020 2018-10-04 17:51:14 21.2 27 15.8
003C0020 2018-10-04 16:45:11 21.4 31 11.5
003C0020 2018-10-04 15:39:05 20.3 42 0